User: anonymous   Login
Location: Ashtead
(51.3000°N, 0.3000°W)
Time: 11:45:19
(UTC+00:00)
Language:

Meteor 2-6 Rocket - Orbit

View from above orbital plane
View from above orbital plane
View from above satellite
View from above satellite

Ground track
Ground track

The orbit data is extracted from the following two-line orbital elements,

1 11963U 80073B   24056.84475368  .00000340  00000-0  18157-3 0  9992
2 11963  81.2743 274.6219 0074534 358.7052   1.3913 14.09906142234700
Epoch (UTC): 25 February 2024 20:16:26
Eccentricity: 0.0074534
inclination: 81.2743°
perigee height: 806 km
apogee height: 913 km
right ascension of ascending node: 274.6219°
argument of perigee: 358.7052°
revolutions per day: 14.09906142
mean anomaly at epoch: 1.3913°
orbit number at epoch: 23470

The dashed part of the orbit path shows where the satellite is in the earth's shadow,  

DLR